Volver al catálogo

STARLINK-11656

ActivoComunicacionesVLEO
NORAD 63674·PAYLOAD·🇺🇸 United States

Lanzado Apr 28, 2025 desde Cape Canaveral Space Force Station

Loading…

Próximos Pases (próximas 24 horas)

TLE

ActualizadoSource: CelesTrak SupGP

Época: Sep 15, 2026, 02:31 UTC

1 63674C 25085L   26258.10534722 -.00045729  00000+0 -35510-3 0  2586
2 63674  43.0004 216.5459 0001463 267.0082  88.1872 15.70866120    11

Sigue STARLINK-11656 en tiempo real con AllMySat

Download on the App Store